SCP
0 0 0 -0 -0 -0 -0 -0 -0 -0 -0 -0 -0 -0 -0 -0 -0 -0 -0 -0 -0 -0 -0 -0 -0 0 0
0 0 -0 -0 -0 -0 -0 -0 -0 -0 -0 -0 -0 -0 -0 -0 -0 -0 -0 -0 -0 -0 0 0 0 0 0
0 0 -0 -0 -0 -0 -0 -0 -0 0 0 0 0 0 -0 -0 -0 -0 -0 0 0 0 0 0 0 0 0
0 -0 -0 -0 -0 -0 -0 -0 0 0 0 0 0 0 0 0 0 0 0 0 0 0 0 0 0 0 0
-0 -0 0 0 0 0 0 0 0 0 0 0 0 0 0 0 0 0 0 0 0 0 0 0 0 0 0
-0 -0 -0 0 0 0 0 0 0 0 0 0 0 0 0 0 0 0 0 0 0 0 0 0 0 0 0
-0 -0 -0 -0 0 0 0 0 0 0 0 0 0 0 0 0 0 0 0 0 0 0 0 0 0 0 0
-0 -0 -0 -0 0 0 0 0 0 0 0 0 0 0 0 0 0 0 0 0 0 0 0 0 0 0 0
-0 -0 -0 -0 0 0 0 0 0 0 0 0 0 0 0 0 0 0 0 0 0 0 0 0 0 0 0
-0 0 0 0 0 0 0 0 0 0 0 0 0 0 0 0 0 0 0 0 0 0 0 0 0 0 0
0 0 0 0 0 0 0 0 0 0 0 0 0 0 0 0 0 0 0 0 0 0 0 0 0 0 0
0 0 0 0 0 0 0 0 0 0 0 0 0 0 0 0 0 0 0 0 0 0 0 0 0 0 0
0 0 0 0 0 0 0 0 0 0 0 0 0 0 0 0 0 0 0 0 0 0 0 0 0 0 0
0 0 0 0 0 0 0 0 0 0 0 0 0 0 0 0 0 0 0 0 0 0 0 0 0 0 0
0 0 0 0 0 0 0 0 0 0 0 0 0 0 0 0 0 0 0 0 0 0 0 0 0 0 0
0 0 0 0 0 0 0 0 0 0 0 0 0 0 0 0 0 0 0 0 0 0 0 0 0 0 0
Wind_Speed_500mb
17 15 14 13 14 13 12 9 9 9 7 7 7 7 6 10 13 14 10 8 12 13 15 13 15 11 5
21 17 14 13 12 11 10 7 7 6 5 4 4 4 4 6 10 8 9 8 9 8 6 5 5 1 1
24 21 19 16 15 12 9 6 3 2 1 2 4 4 4 4 5 5 6 7 6 4 3 6 6 8 6
32 29 25 21 18 16 13 11 8 5 4 4 5 6 5 6 5 6 6 6 5 3 3 5 7 12 12
38 35 32 29 26 23 20 16 14 12 10 8 8 8 8 8 6 6 6 5 4 4 4 6 10 11 14
41 40 37 35 31 28 26 24 21 17 14 11 11 11 11 9 9 8 7 5 5 5 5 9 14 14 16
41 42 44 42 38 34 33 30 26 23 20 17 16 16 15 13 12 12 9 7 7 6 8 12 16 19 21
43 42 46 46 42 40 38 34 32 29 27 24 22 21 20 18 18 17 14 12 10 11 12 13 15 19 21
48 43 41 44 48 44 39 39 36 36 35 34 30 29 27 27 26 26 23 21 19 19 19 16 23 23 27
58 53 48 43 42 40 44 45 42 40 41 41 40 36 35 38 37 34 32 31 27 26 27 30 26 30 32
64 63 59 53 51 48 47 51 52 49 48 48 45 41 41 47 48 46 46 44 44 41 39 39 38 40 40
67 69 68 64 62 60 58 50 55 57 54 54 55 53 46 49 59 48 56 54 55 52 51 50 51 50 50
74 74 78 78 73 71 71 66 63 57 56 61 63 62 60 57 57 62 62 63 62 64 61 59 60 64 66
71 72 77 78 79 74 73 74 71 70 67 61 62 70 71 69 68 67 67 67 71 72 70 67 61 68 76
70 75 79 84 86 84 83 83 81 79 77 75 66 70 72 75 77 72 69 75 78 77 80 70 29 44 56
64 76 80 81 82 71 72 73 79 82 85 83 77 70 68 72 81 80 80 79 82 84 86 89 89 92 53
Wind_Direction_500mb
171 162 157 148 142 138 134 120 102 95 88 88 105 138 159 125 140 150 144 100 103 105 123 119 107 125 117
186 181 182 174 168 159 153 130 98 86 89 103 127 156 187 146 148 147 146 128 126 118 124 150 156 264 195
203 201 200 195 194 192 186 174 154 111 125 151 162 185 208 201 167 158 146 154 157 161 207 233 245 168 145
213 215 215 214 215 214 214 218 222 234 239 221 208 212 210 219 209 190 180 183 188 207 249 227 196 173 163
221 223 221 222 222 222 222 227 234 238 238 234 229 225 222 229 231 221 205 204 226 260 277 228 222 196 180
226 231 233 235 235 233 232 233 238 244 244 244 232 228 227 230 223 222 221 233 250 265 261 246 242 231 201
232 237 239 241 241 240 239 239 242 245 246 249 238 232 234 229 227 225 226 242 260 269 264 254 258 236 220
239 244 244 245 244 243 245 247 249 251 248 247 245 240 240 237 232 227 229 234 241 259 269 272 267 254 244
242 247 251 252 250 245 250 249 255 256 254 248 248 247 248 246 242 238 236 238 247 253 258 273 278 272 275
242 247 251 256 255 250 240 246 254 254 254 252 251 251 251 249 244 242 248 257 265 272 275 270 265 263 258
244 246 249 255 258 257 251 249 248 250 256 256 258 255 258 256 254 249 248 248 252 257 256 258 264 265 264
247 248 248 250 253 257 260 256 251 254 253 259 257 255 252 258 262 259 256 254 256 257 260 260 261 259 259
243 244 244 245 248 251 257 261 260 261 254 254 259 256 253 254 265 257 260 252 258 255 255 257 258 263 262
247 248 247 249 251 257 260 261 262 262 264 263 254 261 257 255 256 261 257 262 258 258 253 252 254 264 261
251 249 248 247 251 253 255 257 260 261 262 265 267 261 261 260 258 262 266 264 263 266 256 253 250 248 266
251 250 251 253 253 261 263 265 264 265 265 267 270 268 267 266 265 264 265 263 263 261 256 257 254 263 261
Wind_Speed_850mb
17 15 14 13 14 13 12 9 9 9 7 7 7 7 6 10 13 14 10 8 12 13 15 13 15 11 5
21 17 14 13 12 11 10 7 7 6 5 4 4 4 4 6 10 8 9 8 9 8 6 5 5 1 1
24 21 19 16 15 12 9 6 3 2 1 2 4 4 4 4 5 5 6 7 6 4 3 6 6 8 6
32 29 25 21 18 16 13 11 8 5 4 4 5 6 5 6 5 6 6 6 5 3 3 5 7 12 12
38 35 32 29 26 23 20 16 14 12 10 8 8 8 8 8 6 6 6 5 4 4 4 6 10 11 14
41 40 37 35 31 28 26 24 21 17 14 11 11 11 11 9 9 8 7 5 5 5 5 9 14 14 16
41 42 44 42 38 34 33 30 26 23 20 17 16 16 15 13 12 12 9 7 7 6 8 12 16 19 21
43 42 46 46 42 40 38 34 32 29 27 24 22 21 20 18 18 17 14 12 10 11 12 13 15 19 21
48 43 41 44 48 44 39 39 36 36 35 34 30 29 27 27 26 26 23 21 19 19 19 16 23 23 27
58 53 48 43 42 40 44 45 42 40 41 41 40 36 35 38 37 34 32 31 27 26 27 30 26 30 32
64 63 59 53 51 48 47 51 52 49 48 48 45 41 41 47 48 46 46 44 44 41 39 39 38 40 40
67 69 68 64 62 60 58 50 55 57 54 54 55 53 46 49 59 48 56 54 55 52 51 50 51 50 50
74 74 78 78 73 71 71 66 63 57 56 61 63 62 60 57 57 62 62 63 62 64 61 59 60 64 66
71 72 77 78 79 74 73 74 71 70 67 61 62 70 71 69 68 67 67 67 71 72 70 67 61 68 76
70 75 79 84 86 84 83 83 81 79 77 75 66 70 72 75 77 72 69 75 78 77 80 70 29 44 56
64 76 80 81 82 71 72 73 79 82 85 83 77 70 68 72 81 80 80 79 82 84 86 89 89 92 53
Wind_Direction_850mb
171 162 157 148 142 138 134 120 102 95 88 88 105 138 159 125 140 150 144 100 103 105 123 119 107 125 117
186 181 182 174 168 159 153 130 98 86 89 103 127 156 187 146 148 147 146 128 126 118 124 150 156 264 195
203 201 200 195 194 192 186 174 154 111 125 151 162 185 208 201 167 158 146 154 157 161 207 233 245 168 145
213 215 215 214 215 214 214 218 222 234 239 221 208 212 210 219 209 190 180 183 188 207 249 227 196 173 163
221 223 221 222 222 222 222 227 234 238 238 234 229 225 222 229 231 221 205 204 226 260 277 228 222 196 180
226 231 233 235 235 233 232 233 238 244 244 244 232 228 227 230 223 222 221 233 250 265 261 246 242 231 201
232 237 239 241 241 240 239 239 242 245 246 249 238 232 234 229 227 225 226 242 260 269 264 254 258 236 220
239 244 244 245 244 243 245 247 249 251 248 247 245 240 240 237 232 227 229 234 241 259 269 272 267 254 244
242 247 251 252 250 245 250 249 255 256 254 248 248 247 248 246 242 238 236 238 247 253 258 273 278 272 275
242 247 251 256 255 250 240 246 254 254 254 252 251 251 251 249 244 242 248 257 265 272 275 270 265 263 258
244 246 249 255 258 257 251 249 248 250 256 256 258 255 258 256 254 249 248 248 252 257 256 258 264 265 264
247 248 248 250 253 257 260 256 251 254 253 259 257 255 252 258 262 259 256 254 256 257 260 260 261 259 259
243 244 244 245 248 251 257 261 260 261 254 254 259 256 253 254 265 257 260 252 258 255 255 257 258 263 262
247 248 247 249 251 257 260 261 262 262 264 263 254 261 257 255 256 261 257 262 258 258 253 252 254 264 261
251 249 248 247 251 253 255 257 260 261 262 265 267 261 261 260 258 262 266 264 263 266 256 253 250 248 266
251 250 251 253 253 261 263 265 264 265 265 267 270 268 267 266 265 264 265 263 263 261 256 257 254 263 261